[[{"header":{"parameterUnit":"m.s-1","parameterCategory":1,"la1":30.2991,"la2":30.254,"lo1":-89.0895,"lo2":-89.0444,"dy":0.0017,"dx":0.0017,"nx":28,"ny":28,"refTime":"2024-02-07T09:00:00:Z","depth":0,"parameterNumber":2,"parameterNumberName":"U-component_of_WINDS"},"data":[0,0,0,0,0,0,0,0,0,0,0,0,0,0,0,0,0,0,0,0,0,0,0,0,0,0,0,0,0,0,0,0,0,0,0,0,0,0,0,0,0,0,0,0,0,0,0,0,0,0,0,0,0,0,0,0,0,0,-2.754,-2.754,0,-2.7563,-2.7563,-2.7563,-2.752,-2.7519,-2.7517,-2.7516,-2.7539,-2.7541,-2.7543,0,0,0,0,0,0,0,0,0,0,0,0,0,-2.7459,-2.746,-2.754,-2.754,-2.7541,-2.7563,-2.7563,-2.7563,-2.752,-2.7519,-2.7517,-2.7515,-2.7539,-2.7541,-2.7543,0,0,0,0,0,0,0,0,0,0,0,0,0,-2.7489,-2.7461,-2.754,-2.7522,-2.752,-2.7563,-2.7563,-2.7564,-2.7521,-2.7519,-2.7516,-2.7514,-2.7538,-2.7541,-2.7544,-2.7605,0,0,-2.7553,-2.7554,0,0,0,0,0,0,0,0,-2.7487,-2.7492,-2.7524,-2.7523,-2.7522,-2.7536,-2.7543,-2.7577,-2.7521,-2.7521,-2.7516,-2.7513,-2.754,-2.7543,-2.7552,-2.7606,-2.7607,-2.7553,-2.7555,-2.7556,-2.7557,0,0,0,0,0,0,0,-2.7485,-2.7491,-2.7549,-2.7525,-2.7523,-2.7512,-2.7514,-2.7549,-2.7542,-2.7521,-2.7517,-2.7521,-2.7539,-2.7549,-2.7552,-2.7607,-2.7553,-2.7555,-2.7557,-2.7558,-2.7712,-2.7714,0,0,0,0,0,0,-2.7486,-2.7489,-2.7548,-2.755,-2.7499,-2.7516,-2.7518,-2.7534,-2.7542,-2.7541,-2.7523,-2.7519,-2.7545,-2.7549,-2.7553,-2.7623,-2.7556,-2.7559,-2.756,-2.771,-2.7712,-2.7715,0,0,0,0,0,0,-2.7484,-2.7491,-2.7547,-2.7519,-2.7525,-2.7519,-2.7538,-2.7535,-2.7545,-2.7543,-2.7542,-2.7534,-2.7543,-2.7548,-2.7592,-2.7624,-2.756,-2.7563,-2.7707,-2.771,-2.7714,-2.7767,0,0,0,0,0,0,-2.7482,-2.7491,-2.7514,-2.752,-2.7527,-2.7586,-2.754,-2.7537,-2.7551,-2.7546,-2.7554,-2.7553,-2.7542,-2.7588,-2.7595,-2.7627,-2.7565,-2.7704,-2.7708,-2.7712,-2.7762,-2.7771,-2.778,0,0,0,0,0,-2.7479,-2.7528,-2.7515,-2.7523,-2.7556,-2.7588,-2.7592,-2.7579,-2.7553,-2.7576,-2.7575,-2.7553,-2.762,-2.7593,-2.76,-2.7633,-2.7702,-2.7707,-2.7712,-2.7758,-2.7769,-2.7779,0,0,0,0,0,0,-2.7526,-2.7528,-2.7514,-2.7567,-2.7578,-2.7581,-2.7609,-2.7592,-2.761,-2.7605,-2.7588,-2.759,-2.7637,-2.764,-2.7609,-2.7693,-2.7656,-2.7663,-2.7688,-2.7699,-2.7708,-2.7705,-2.7567,0,0,0,0,0,-2.7543,-2.7569,-2.757,-2.7616,-2.7622,-2.7615,-2.7629,-2.7618,-2.7628,-2.7633,-2.7635,-2.7646,-2.7669,-2.7685,-2.7706,-2.7763,-2.7763,-2.779,-2.7798,-2.7806,-2.7811,-2.784,-2.7852,-2.7732,-2.7732,-2.7732,0,0,-2.7576,-2.7581,-2.7599,-2.7625,-2.7633,-2.766,-2.7619,-2.765,-2.767,-2.7637,-2.7678,-2.768,-2.7691,-2.7741,-2.7764,-2.7745,-2.7845,-2.7812,-2.7818,-2.782,-2.7847,-2.7858,-2.7868,-2.7736,-2.7735,-2.7734,0,0,-2.7652,-2.7659,-2.7698,-2.7706,-2.7718,-2.7713,-2.7722,-2.7728,-2.7728,-2.7769,-2.7745,-2.7769,-2.781,-2.7819,-2.7829,-2.7909,-2.7889,-2.7917,-2.7962,-2.7991,-2.8,-2.8008,-2.8035,-2.8045,-2.7923,-2.7923,-2.7923,0,-2.7693,-2.7733,-2.772,-2.7752,-2.7764,-2.7737,-2.7775,-2.7784,-2.7802,-2.7811,-2.7791,-2.7841,-2.7847,-2.7898,-2.7918,-2.7928,-2.7937,-2.7915,-2.8,-2.8008,-2.8015,-2.8041,-2.8051,-2.7926,-2.7926,-2.7925,-2.7925,0,-2.7782,-2.7811,-2.7841,-2.7859,-2.7874,-2.791,-2.7902,-2.7919,-2.7908,-2.7905,-2.7947,-2.7953,-2.7975,-2.7987,-2.7976,-2.8036,-2.8024,-2.8003,-2.7965,-2.803,-2.8054,-2.8064,-2.7931,-2.793,-2.7929,-2.7928,0,0,-2.7886,-2.7897,-2.7908,-2.7915,-2.7927,-2.7948,-2.7983,-2.8005,-2.802,-2.8034,-2.8061,-2.8097,-2.8077,-2.8088,-2.8078,-2.8104,-2.8165,-2.8078,-2.8078,-2.8093,-2.8231,-2.8246,-2.8258,-2.8153,-2.8155,-2.8156,-2.823,0,-2.7959,-2.8018,-2.8008,-2.8065,-2.8091,-2.8066,-2.8096,-2.8106,-2.8105,-2.8127,-2.8126,-2.815,-2.8123,-2.8129,-2.8153,-2.8153,-2.8192,-2.8147,-2.8177,-2.8179,-2.8173,-2.827,-2.8286,-2.8355,-2.8239,-2.8241,-2.8242,0,-2.8053,-2.807,-2.813,-2.8137,-2.8148,-2.8175,-2.8194,-2.8215,-2.8226,-2.8224,-2.8237,-2.8222,-2.8256,-2.8221,-2.8267,-2.8236,-2.8249,-2.825,-2.8253,-2.8253,-2.8212,-2.8272,-2.8377,-2.8387,-2.8257,-2.8255,-2.8254,0,-2.812,-2.8159,-2.8199,-2.8207,-2.8217,-2.8236,-2.8242,-2.8251,-2.8264,-2.8281,-2.829,-2.8311,-2.8322,-2.8338,-2.8329,-2.8304,-2.8377,-2.8341,-2.8375,-2.8375,-2.8389,-2.8388,-2.8496,-2.8401,-2.8401,-2.84,-2.84,0,-2.8202,-2.8239,-2.823,-2.8254,-2.8296,-2.8283,-2.8324,-2.8326,-2.8335,-2.8359,-2.834,-2.8363,-2.8351,-2.8374,-2.8368,-2.8406,-2.8412,-2.841,-2.8408,-2.8411,-2.8411,-2.8417,-2.8411,-2.8403,-2.8403,-2.8402,-2.8402,0,-2.8283,-2.8278,-2.8321,-2.8327,-2.833,-2.8359,-2.8365,-2.8388,-2.8386,-2.8417,-2.8424,-2.8421,-2.8446,-2.844,-2.8468,-2.8464,-2.8512,-2.8504,-2.8508,-2.8505,-2.8539,-2.8535,-2.8653,-2.8667,-2.8565,-2.8566,-2.8566,0,-2.8334,-2.8363,-2.8372,-2.8387,-2.8394,-2.8419,-2.8433,-2.8422,-2.8438,-2.8453,-2.8474,-2.8498,-2.8516,-2.8559,-2.8559,-2.858,-2.8572,-2.8612,-2.8574,-2.8577,-2.857,-2.8567,-2.857,-2.8618,-2.8619,-2.862,-2.8621,0,-2.8426,-2.8422,-2.8443,-2.8464,-2.8481,-2.8497,-2.8511,-2.8524,-2.8515,-2.8533,-2.8559,-2.8574,-2.8603,-2.8626,-2.8646,-2.8651,-2.8634,-2.8633,-2.8642,-2.8644,-2.8644,-2.8642,-2.8525,-2.863,-2.8629,-2.8628,-2.8628,-2.8627,-2.8492,-2.8516,-2.8526,-2.855,-2.856,-2.8573,-2.8595,-2.8596,-2.8618,-2.864,-2.8633,-2.8663,-2.8674,-2.8698,-2.8706,-2.8729,-2.8713,-2.8727,-2.8729,-2.8732,-2.8736,-2.8642,-2.8733,-2.8732,-2.8732,-2.8732,-2.8732,0,-2.8581,-2.8587,-2.8609,-2.8629,-2.8648,-2.8632,-2.8647,-2.8663,-2.869,-2.8701,-2.872,-2.875,-2.8773,-2.8776,-2.8797,-2.8815,-2.8808,-2.8821,-2.8818,-2.8819,-2.8749,-2.8738,-2.8826,-2.8826,-2.8826,-2.8826,-2.8826,-2.8826,-2.8629,-2.8668,-2.8666,-2.8709,-2.8714,-2.8743,-2.8753,-2.8765,-2.8774,-2.8808,-2.8827,-2.8829,-2.8837,-2.8859,-2.888,-2.888,-2.8888,-2.8904,-2.8901,-2.8834,-2.8825,-2.8816,-2.8805,-2.8906,-2.8906,-2.8969,-2.897,-2.897]},{"header":{"parameterUnit":"m.s-1","parameterCategory":1,"la1":30.2991,"la2":30.254,"lo1":-89.0895,"lo2":-89.0444,"dy":0.0017,"dx":0.0017,"nx":28,"ny":28,"refTime":"2024-02-07T09:00:00:Z","depth":0,"parameterNumber":3,"parameterNumberName":"V-component_of_WINDS"},"data":[0,0,0,0,0,0,0,0,0,0,0,0,0,0,0,0,0,0,0,0,0,0,0,0,0,0,0,0,0,0,0,0,0,0,0,0,0,0,0,0,0,0,0,0,0,0,0,0,0,0,0,0,0,0,0,0,0,0,1.9212,1.9211,0,1.9152,1.9151,1.9151,1.905,1.9048,1.9046,1.9044,1.8987,1.8987,1.8987,0,0,0,0,0,0,0,0,0,0,0,0,0,1.9245,1.9245,1.9212,1.9211,1.921,1.9152,1.9151,1.915,1.905,1.9048,1.9046,1.9044,1.8987,1.8987,1.8987,0,0,0,0,0,0,0,0,0,0,0,0,0,1.9213,1.9245,1.9212,1.9153,1.9147,1.9152,1.9151,1.915,1.9051,1.9048,1.9045,1.9042,1.8986,1.8987,1.8987,1.9046,0,0,1.8988,1.8988,0,0,0,0,0,0,0,0,1.9215,1.9212,1.9163,1.9157,1.9151,1.9105,1.9142,1.9115,1.9051,1.9088,1.9044,1.9041,1.9029,1.9025,1.902,1.9043,1.904,1.8988,1.8988,1.8988,1.8989,0,0,0,0,0,0,0,1.9217,1.9214,1.9188,1.9162,1.9155,1.9132,1.9124,1.9136,1.9075,1.9084,1.9077,1.9071,1.9025,1.902,1.9018,1.9039,1.8988,1.8988,1.8989,1.8989,1.9112,1.9115,0,0,0,0,0,0,1.9227,1.9216,1.919,1.9186,1.9176,1.9134,1.9125,1.9123,1.9074,1.9064,1.9073,1.9066,1.9021,1.9018,1.9016,1.9084,1.8988,1.8989,1.8989,1.9109,1.9112,1.9116,0,0,0,0,0,0,1.9228,1.9226,1.9193,1.9199,1.9193,1.9136,1.9135,1.9123,1.9118,1.9066,1.9055,1.908,1.9019,1.9015,1.904,1.9081,1.8989,1.8989,1.9105,1.911,1.9114,1.9219,0,0,0,0,0,0,1.923,1.9227,1.9247,1.92,1.9193,1.9216,1.9137,1.9124,1.9119,1.9109,1.9069,1.906,1.9016,1.904,1.904,1.9079,1.8989,1.9101,1.9107,1.9113,1.9212,1.9227,1.924,0,0,0,0,0,1.9231,1.9279,1.9248,1.9246,1.9217,1.9218,1.9214,1.9162,1.9122,1.9144,1.9111,1.9061,1.9076,1.9043,1.9043,1.9083,1.9098,1.9105,1.9112,1.9206,1.9224,1.924,0,0,0,0,0,0,1.9332,1.9271,1.9237,1.927,1.925,1.9201,1.9226,1.9183,1.9174,1.9166,1.9103,1.9095,1.9128,1.9107,1.9072,1.9139,1.908,1.9087,1.9151,1.9168,1.9182,1.9187,1.899,0,0,0,0,0,1.9358,1.9362,1.931,1.9345,1.9336,1.9283,1.9282,1.9244,1.9221,1.9212,1.918,1.9161,1.9162,1.9164,1.9161,1.9208,1.92,1.9236,1.925,1.9262,1.9269,1.9297,1.9313,1.9138,1.9138,1.9138,0,0,1.9411,1.9379,1.9386,1.9364,1.9344,1.9353,1.9277,1.9288,1.9295,1.9214,1.9235,1.9212,1.9187,1.9224,1.9239,1.9208,1.9316,1.9271,1.928,1.9281,1.9306,1.9322,1.9337,1.9143,1.9142,1.9141,0,0,1.9514,1.9489,1.9517,1.9499,1.9469,1.9434,1.9442,1.94,1.9381,1.9401,1.9342,1.935,1.9351,1.9337,1.933,1.9432,1.9388,1.9433,1.9506,1.9534,1.9548,1.956,1.9599,1.9614,1.944,1.944,1.9441,0,1.9585,1.9594,1.9537,1.9553,1.9547,1.9474,1.9504,1.949,1.9462,1.946,1.9425,1.9428,1.9406,1.9441,1.9466,1.9462,1.947,1.9437,1.955,1.9561,1.9572,1.9609,1.9624,1.9446,1.9446,1.9445,1.9444,0,1.9684,1.9692,1.9718,1.9694,1.969,1.9713,1.9662,1.9666,1.9629,1.9599,1.9623,1.9594,1.9586,1.9591,1.9555,1.9622,1.9605,1.9561,1.95,1.9595,1.963,1.9643,1.9455,1.9453,1.9451,1.9449,0,0,1.9847,1.9793,1.9803,1.9793,1.9757,1.9763,1.9784,1.9776,1.9782,1.9766,1.9785,1.9789,1.975,1.9742,1.9704,1.9728,1.9815,1.9682,1.9681,1.971,1.9892,1.9927,1.9944,1.9785,1.9788,1.979,1.9895,0,1.9944,1.9976,1.9927,1.9972,1.998,1.9913,1.9932,1.9914,1.9887,1.9892,1.9862,1.9868,1.9814,1.9809,1.983,1.98,1.9851,1.9792,1.9805,1.9806,1.9815,1.9961,1.9997,2.0098,1.9908,1.991,1.9911,0,2.0061,2.0052,2.0097,2.0062,2.0064,2.0082,2.0072,2.0077,2.0056,2.0035,2.0029,1.9984,2.0005,1.9946,1.9977,1.9938,1.994,1.9927,1.993,1.9931,1.9866,1.9968,2.0128,2.0145,1.9931,1.993,1.9928,0,2.018,2.0178,2.0206,2.0199,2.0157,2.0172,2.0156,2.0132,2.0132,2.0124,2.0124,2.0119,2.0118,2.0116,2.0073,2.0034,2.0111,2.0047,2.0097,2.0098,2.0117,2.0117,2.0282,2.0115,2.0115,2.0115,2.0114,0,2.0294,2.0325,2.0259,2.0276,2.0311,2.0255,2.0291,2.0268,2.0249,2.0263,2.0204,2.0219,2.016,2.0169,2.0136,2.0169,2.0167,2.0153,2.0144,2.016,2.0162,2.0162,2.0155,2.0119,2.0118,2.0117,2.0116,0,2.0432,2.0388,2.0415,2.0375,2.0365,2.0393,2.0359,2.0375,2.0345,2.0364,2.0365,2.0319,2.0327,2.0284,2.0284,2.0262,2.0313,2.0291,2.032,2.0314,2.0367,2.0364,2.054,2.0562,2.0379,2.0381,2.0383,0,2.0509,2.0532,2.0495,2.05,2.0486,2.0495,2.0495,2.0442,2.0445,2.0425,2.0445,2.0448,2.0448,2.0465,2.0433,2.0434,2.0413,2.0475,2.0413,2.0429,2.0418,2.0418,2.0422,2.0489,2.0491,2.0493,2.0494,0,2.0652,2.063,2.0631,2.0627,2.0628,2.0622,2.0612,2.062,2.0563,2.057,2.0577,2.0578,2.0579,2.0585,2.058,2.0565,2.0523,2.0514,2.0526,2.0543,2.056,2.0555,2.0358,2.051,2.0509,2.0507,2.0507,2.0506,2.0763,2.0782,2.076,2.0764,2.0752,2.0745,2.0759,2.0731,2.0737,2.0733,2.0702,2.0717,2.07,2.0689,2.0679,2.0692,2.0663,2.0679,2.0684,2.069,2.0701,2.0557,2.069,2.069,2.0689,2.0689,2.0688,0,2.0905,2.0889,2.0893,2.0882,2.0887,2.0844,2.0832,2.084,2.0853,2.084,2.0842,2.0853,2.0859,2.0829,2.0831,2.0848,2.0828,2.085,2.085,2.0848,2.0724,2.0715,2.0866,2.0866,2.0866,2.0866,2.0866,2.0866,2.098,2.1011,2.0987,2.1012,2.0995,2.1009,2.1006,2.1001,2.099,2.1005,2.101,2.0989,2.0971,2.0972,2.0977,2.0968,2.0973,2.1003,2.0988,2.0873,2.0856,2.084,2.0831,2.1004,2.1004,2.111,2.1111,2.1112]}]]